TimeEDT,TemperatureF,Dew PointF,Humidity,Sea Level PressureIn,VisibilityMPH,Wind Direction,Wind SpeedMPH,Gust SpeedMPH,PrecipitationIn,Events,Conditions,WindDirDegrees,DateUTC
12:15 AM,56.3,55.2,96,30.11,7.0,Calm,Calm,-,N/A,,Overcast,0,2013-05-20 04:15:00
12:35 AM,56.8,55.8,96,30.12,7.0,Calm,Calm,-,N/A,,Overcast,0,2013-05-20 04:35:00
12:55 AM,57.2,55.8,95,30.12,7.0,Calm,Calm,-,N/A,,Overcast,0,2013-05-20 04:55:00
1:15 AM,57.2,55.9,96,30.12,1.0,Calm,Calm,-,N/A,,Overcast,0,2013-05-20 05:15:00
1:35 AM,57.6,56.3,96,30.12,0.2,Calm,Calm,-,N/A,Fog,Fog,0,2013-05-20 05:35:00
1:55 AM,57.2,56.1,96,30.12,0.5,Calm,Calm,-,N/A,Fog,Fog,0,2013-05-20 05:55:00
2:15 AM,57.2,55.8,95,30.11,0.5,Calm,Calm,-,N/A,Fog,Fog,0,2013-05-20 06:15:00
2:35 AM,57.2,55.9,96,30.12,0.2,Calm,Calm,-,N/A,Fog,Fog,0,2013-05-20 06:35:00
2:55 AM,57.2,55.9,96,30.12,0.5,Calm,Calm,-,N/A,Fog,Fog,0,2013-05-20 06:55:00
3:15 AM,57.2,55.9,96,30.12,0.8,Calm,Calm,-,N/A,,Overcast,0,2013-05-20 07:15:00
3:35 AM,57.2,55.8,95,30.13,7.0,Calm,Calm,-,N/A,,Overcast,0,2013-05-20 07:35:00
4:15 AM,57.2,55.9,96,30.13,10.0,Calm,Calm,-,N/A,,Overcast,0,2013-05-20 08:15:00
4:35 AM,57.2,55.8,95,30.12,1.8,Calm,Calm,-,N/A,,Overcast,0,2013-05-20 08:35:00
4:55 AM,57.2,55.8,95,30.13,1.2,Calm,Calm,-,N/A,,Overcast,0,2013-05-20 08:55:00
5:35 AM,57.2,55.6,94,30.12,7.0,Calm,Calm,-,N/A,,Overcast,0,2013-05-20 09:35:00
5:55 AM,56.8,55.6,96,30.12,7.0,Calm,Calm,-,N/A,,Overcast,0,2013-05-20 09:55:00
6:15 AM,57.0,55.6,95,30.13,4.0,Calm,Calm,-,N/A,,Overcast,0,2013-05-20 10:15:00
6:35 AM,56.8,55.4,95,30.13,2.0,Calm,Calm,-,N/A,,Overcast,0,2013-05-20 10:35:00
6:55 AM,56.7,55.4,96,30.15,1.5,Calm,Calm,-,N/A,,Overcast,0,2013-05-20 10:55:00
7:15 AM,56.8,55.4,95,30.15,1.2,Calm,Calm,-,N/A,,Overcast,0,2013-05-20 11:15:00
7:35 AM,57.2,55.6,94,30.15,2.5,Calm,Calm,-,N/A,,Overcast,0,2013-05-20 11:35:00
7:55 AM,57.2,55.8,95,30.15,1.2,Calm,Calm,-,N/A,,Overcast,0,2013-05-20 11:55:00
8:15 AM,57.6,56.3,96,30.16,3.0,Calm,Calm,-,N/A,,Overcast,0,2013-05-20 12:15:00
8:35 AM,57.4,56.1,96,30.17,10.0,Calm,Calm,-,N/A,,Overcast,0,2013-05-20 12:35:00
8:55 AM,57.7,56.3,95,30.16,5.0,Calm,Calm,-,N/A,,Overcast,0,2013-05-20 12:55:00
9:15 AM,58.1,56.7,95,30.17,7.0,Calm,Calm,-,N/A,,Overcast,0,2013-05-20 13:15:00
9:35 AM,58.1,56.7,95,30.17,7.0,Calm,Calm,-,N/A,,Overcast,0,2013-05-20 13:35:00
10:15 AM,59.2,58.1,96,30.17,10.0,Calm,Calm,-,N/A,,Overcast,0,2013-05-20 14:15:00
10:35 AM,60.4,59.4,96,30.17,10.0,Calm,Calm,-,N/A,,Overcast,0,2013-05-20 14:35:00
11:35 AM,67.3,61.9,83,30.16,10.0,Calm,Calm,-,N/A,,Clear,0,2013-05-20 15:35:00
11:55 AM,69.4,57.7,66,30.15,10.0,Calm,Calm,-,N/A,,Clear,0,2013-05-20 15:55:00
12:15 PM,71.8,57.7,61,30.15,10.0,Calm,Calm,-,N/A,,Clear,0,2013-05-20 16:15:00
12:35 PM,73.9,59.4,60,30.14,10.0,WNW,3.5,-,N/A,,Clear,300,2013-05-20 16:35:00
12:55 PM,74.8,57.4,54,30.13,10.0,Calm,Calm,-,N/A,,Clear,0,2013-05-20 16:55:00
1:15 PM,77.0,58.3,52,30.12,10.0,Calm,Calm,-,N/A,,Clear,0,2013-05-20 17:15:00
1:35 PM,78.3,55.9,46,30.11,10.0,Calm,Calm,-,N/A,,Clear,0,2013-05-20 17:35:00
2:15 PM,81.0,58.1,46,30.11,10.0,Calm,Calm,-,N/A,,Clear,0,2013-05-20 18:15:00
2:55 PM,81.0,59.0,47,30.10,10.0,West,5.8,-,N/A,,Scattered Clouds,260,2013-05-20 18:55:00
3:15 PM,81.1,57.9,45,30.08,10.0,WNW,3.5,-,N/A,,Clear,290,2013-05-20 19:15:00
3:35 PM,78.3,61.9,57,30.08,10.0,SW,3.5,-,N/A,,Scattered Clouds,230,2013-05-20 19:35:00
3:55 PM,81.5,59.4,47,30.07,10.0,Calm,Calm,-,N/A,,Clear,0,2013-05-20 19:55:00
4:15 PM,81.7,58.8,46,30.07,10.0,NW,4.6,-,N/A,,Clear,310,2013-05-20 20:15:00
4:35 PM,82.0,60.1,47,30.07,10.0,NNW,3.5,-,N/A,,Clear,340,2013-05-20 20:35:00
4:55 PM,82.2,60.1,47,30.06,10.0,Calm,Calm,-,N/A,,Clear,0,2013-05-20 20:55:00
5:15 PM,82.4,60.6,48,30.07,10.0,South,4.6,-,N/A,,Clear,170,2013-05-20 21:15:00
5:35 PM,81.3,64.0,56,30.08,10.0,South,6.9,-,N/A,,Scattered Clouds,190,2013-05-20 21:35:00
5:55 PM,77.7,63.3,61,30.08,10.0,South,6.9,-,N/A,,Scattered Clouds,180,2013-05-20 21:55:00
6:15 PM,75.6,61.9,62,30.08,10.0,South,9.2,-,N/A,,Clear,180,2013-05-20 22:15:00
6:35 PM,75.2,61.5,62,30.08,1.0,SE,6.9,-,N/A,,Haze,130,2013-05-20 22:35:00
6:55 PM,73.4,61.0,65,30.08,10.0,SE,4.6,-,N/A,,Scattered Clouds,130,2013-05-20 22:55:00
7:15 PM,73.6,61.2,65,30.09,10.0,Calm,Calm,-,N/A,,Mostly Cloudy,0,2013-05-20 23:15:00
7:35 PM,73.0,60.1,64,30.08,10.0,SE,6.9,-,N/A,,Scattered Clouds,140,2013-05-20 23:35:00
7:55 PM,72.9,60.8,66,30.08,10.0,Calm,Calm,-,N/A,,Clear,0,2013-05-20 23:55:00
8:15 PM,72.0,61.2,69,30.08,10.0,Calm,Calm,-,N/A,,Clear,0,2013-05-21 00:15:00
8:35 PM,70.5,61.7,74,30.08,10.0,Calm,Calm,-,N/A,,Clear,0,2013-05-21 00:35:00
8:55 PM,67.8,61.9,81,30.08,10.0,Calm,Calm,-,N/A,,Clear,0,2013-05-21 00:55:00
9:15 PM,65.8,61.2,85,30.09,10.0,Calm,Calm,-,N/A,,Clear,0,2013-05-21 01:15:00
9:35 PM,65.1,62.2,90,30.09,10.0,Calm,Calm,-,N/A,,Clear,0,2013-05-21 01:35:00
10:15 PM,63.3,62.2,96,30.11,7.0,Calm,Calm,-,N/A,,Clear,0,2013-05-21 02:15:00
10:35 PM,61.7,60.8,97,30.11,5.0,Calm,Calm,-,N/A,,Scattered Clouds,0,2013-05-21 02:35:00
10:55 PM,61.7,61.0,97,30.11,7.0,Calm,Calm,-,N/A,,Mostly Cloudy,0,2013-05-21 02:55:00
11:15 PM,61.2,60.8,99,30.11,5.0,Calm,Calm,-,N/A,,Mostly Cloudy,0,2013-05-21 03:15:00
11:35 PM,60.4,59.7,97,30.11,5.0,Calm,Calm,-,N/A,,Mostly Cloudy,0,2013-05-21 03:35:00
11:55 PM,60.3,59.7,98,30.11,5.0,West,3.5,-,N/A,,Scattered Clouds,260,2013-05-21 03:55:00